Natchitoches, LA

1:55 AM CST on December 15, 2019 (GMT -0600)
Natchitoches Regional

Weather History for KIER - November, 2019

Change the Weather History Date:

Saturday, November 16, 2019

  Actual Average Record
Temperature  
Mean Temperature 45 °F -  
Max Temperature 62 °F 68 °F 86 °F (1958)
Min Temperature 28 °F 44 °F 24 °F (1940)
Degree Days  
Heating Degree Days 20    
Moisture  
Dew Point 31 °F    
Average Humidity 75    
Maximum Humidity 100    
Minimum Humidity 27    
Precipitation  
Precipitation 0.00 in - - ()
Sea Level Pressure  
Sea Level Pressure 30.22 in    
Wind  
Wind Speed 1 mph (NNE)    
Max Wind Speed 8 mph    
Max Gust Speed -    
Visibility 9 miles    
Events Fog    
Averages and records for this station are not official NWS values.
T = Trace of Precipitation, MM = Missing Value Source: NWS Daily Summary

Daily Weather History Graph

Daily Weather History Graph

Search for Another Location

Airport or City:

Astronomy

Nov. 16, 2019 Rise Set
Actual Time 6:41 AM CST 5:12 PM CST
Civil Twilight 6:15 AM CST 5:38 PM CST
Nautical Twilight 5:45 AM CST 6:07 PM CST
Astronomical Twilight 5:16 AM CST 6:36 PM CST
Moon 8:52 PM CST (11/16) 10:29 AM CST (11/16)
Length of Visible Light 11h 23m
Length of Day
10h 31m
Waning Gibbous, 82% of the Moon is Illuminated
Nov 16
Waning Gibbous
Nov 19
Last Quarter
Nov 26
New
Dec 4
First Quarter
Dec 11
Full

Hourly Weather History & Observations

Time (CST) Temp. Windchill Dew Point Humidity Pressure Visibility Wind Dir Wind Speed Gust Speed Precip Events Conditions
12:15 AM 32.0 °F - 31.8 °F 99% 30.30 in 7.0 mi Calm Calm - N/A   Clear
12:35 AM 31.8 °F - 31.5 °F 99% 30.29 in 3.0 mi Calm Calm - N/A   Clear
12:55 AM 31.8 °F - 31.8 °F 100% 30.29 in 7.0 mi Calm Calm - N/A   Clear
1:35 AM 30.9 °F - 30.9 °F 100% 30.29 in 10.0 mi Calm Calm - N/A   Clear
1:55 AM 30.9 °F - 30.9 °F 100% 30.29 in 10.0 mi Calm Calm - N/A   Clear
2:15 AM 29.8 °F - 29.8 °F 100% 30.29 in 4.0 mi Calm Calm - N/A   Clear
2:55 AM 29.7 °F - 29.7 °F 100% 30.29 in 7.0 mi Calm Calm - N/A   Clear
3:15 AM 29.1 °F - 29.1 °F 100% 30.28 in 7.0 mi Calm Calm - N/A   Clear
3:35 AM 29.3 °F - 29.3 °F 100% 30.28 in 1.5 mi Calm Calm - N/A   Mist
3:55 AM 29.3 °F - 29.1 °F 99% 30.28 in 0.5 mi Calm Calm - N/A Fog Light Freezing Fog
4:15 AM 28.4 °F - 28.4 °F 100% 30.28 in 7.0 mi Calm Calm - N/A   Scattered Clouds
4:35 AM 29.1 °F - 28.9 °F 99% 30.27 in 4.0 mi Calm Calm - N/A   Clear
4:55 AM 28.6 °F - 28.4 °F 99% 30.27 in 7.0 mi Calm Calm - N/A   Clear
5:15 AM 28.8 °F - 28.4 °F 99% 30.27 in 7.0 mi Calm Calm - N/A   Clear
5:35 AM 28.4 °F - 28.4 °F 100% 30.28 in 7.0 mi Calm Calm - N/A   Clear
5:55 AM 28.9 °F 25.2 °F 28.8 °F 99% 30.28 in 7.0 mi NW 3.5 mph - N/A   Clear
6:15 AM 29.1 °F - 28.9 °F 99% 30.28 in 7.0 mi Calm Calm - N/A   Clear
6:55 AM 30.0 °F - 30.0 °F 100% 30.29 in 4.0 mi Calm Calm - N/A   Clear
7:15 AM 31.5 °F - 31.5 °F 100% 30.30 in 7.0 mi Calm Calm - N/A   Clear
7:35 AM 33.4 °F 29.1 °F 33.3 °F 99% 30.30 in 10.0 mi North 4.6 mph - N/A   Clear
8:15 AM 38.1 °F 34.6 °F 35.2 °F 89% 30.31 in 10.0 mi North 4.6 mph - N/A   Clear
8:35 AM 40.1 °F 36.1 °F 34.5 °F 80% 30.31 in 10.0 mi NNE 5.8 mph - N/A   Clear
8:55 AM 41.7 °F 38.0 °F 33.4 °F 72% 30.30 in 10.0 mi NE 5.8 mph - N/A   Clear
9:15 AM 43.3 °F 40.7 °F 33.4 °F 68% 30.31 in 10.0 mi ENE 4.6 mph - N/A   Clear
9:35 AM 45.0 °F 42.6 °F 32.2 °F 61% 30.30 in 10.0 mi NE 4.6 mph - N/A   Clear
9:55 AM 47.1 °F - 32.0 °F 56% 30.30 in 10.0 mi East 4.6 mph - N/A   Clear
10:35 AM 49.5 °F - 30.9 °F 49% 30.29 in 10.0 mi Calm Calm - N/A   Clear
10:55 AM 51.3 °F - 29.5 °F 43% 30.28 in 10.0 mi NE 6.9 mph - N/A   Clear
11:15 AM 51.8 °F - 28.4 °F 41% 30.27 in 10.0 mi NNE 8.1 mph - N/A   Clear
11:35 AM 53.2 °F - 28.4 °F 38% 30.26 in 10.0 mi NNE 5.8 mph - N/A   Clear
11:55 AM 55.0 °F - 28.8 °F 37% 30.25 in 10.0 mi ENE 4.6 mph - N/A   Clear
12:15 PM 55.8 °F - 28.9 °F 36% 30.23 in 10.0 mi NE 3.5 mph - N/A   Clear
12:35 PM 58.1 °F - 29.5 °F 34% 30.22 in 10.0 mi NE 4.6 mph - N/A   Clear
12:55 PM 58.6 °F - 27.5 °F 30% 30.21 in 10.0 mi North 3.5 mph - N/A   Clear
1:15 PM 59.5 °F - 28.0 °F 30% 30.20 in 10.0 mi NW 5.8 mph - N/A   Clear
1:35 PM 59.9 °F - 27.0 °F 29% 30.19 in 10.0 mi NNW 4.6 mph - N/A   Clear
1:55 PM 60.3 °F - 27.9 °F 29% 30.17 in 10.0 mi Calm Calm - N/A   Clear
2:15 PM 61.7 °F - 27.9 °F 28% 30.16 in 10.0 mi NNE 3.5 mph - N/A   Clear
2:35 PM 62.2 °F - 27.7 °F 27% 30.16 in 10.0 mi North 4.6 mph - N/A   Clear
2:55 PM 61.9 °F - 27.9 °F 28% 30.14 in 10.0 mi NNE 8.1 mph - N/A   Clear
3:15 PM 61.7 °F - 28.4 °F 28% 30.14 in 10.0 mi NE 5.8 mph - N/A   Clear
3:35 PM 61.7 °F - 27.5 °F 27% 30.14 in 10.0 mi Calm Calm - N/A   Clear
3:55 PM 61.2 °F - 27.3 °F 28% 30.14 in 10.0 mi Calm Calm - N/A   Clear
4:15 PM 59.7 °F - 29.3 °F 32% 30.13 in 10.0 mi North 4.6 mph - N/A   Clear
4:35 PM 56.7 °F - 30.2 °F 37% 30.13 in 10.0 mi ENE 3.5 mph - N/A   Clear
4:55 PM 54.7 °F - 30.6 °F 40% 30.12 in 10.0 mi NE 3.5 mph - N/A   Clear
5:15 PM 51.4 °F - 31.8 °F 47% 30.12 in 10.0 mi Calm Calm - N/A   Clear
5:55 PM 43.0 °F 41.3 °F 35.8 °F 76% 30.13 in 10.0 mi West 3.5 mph - N/A   Clear
6:15 PM 42.1 °F - 36.5 °F 81% 30.14 in 10.0 mi Calm Calm - N/A   Clear
6:35 PM 40.5 °F - 36.1 °F 85% 30.15 in 10.0 mi Calm Calm - N/A   Clear
6:55 PM 39.2 °F - 36.5 °F 90% 30.15 in 10.0 mi Calm Calm - N/A   Clear
7:15 PM 38.7 °F - 36.7 °F 93% 30.15 in 10.0 mi Calm Calm - N/A   Clear
7:35 PM 37.8 °F - 35.6 °F 92% 30.15 in 10.0 mi Calm Calm - N/A   Clear
7:55 PM 37.4 °F - 35.8 °F 94% 30.15 in 10.0 mi Calm Calm - N/A   Clear
8:15 PM 36.3 °F - 35.1 °F 95% 30.15 in 10.0 mi Calm Calm - N/A   Clear
8:35 PM 36.5 °F - 35.6 °F 97% 30.15 in 10.0 mi Calm Calm - N/A   Clear
8:55 PM 35.2 °F - 34.7 °F 98% 30.15 in 10.0 mi Calm Calm - N/A   Clear
9:15 PM 34.7 °F - 34.0 °F 97% 30.15 in 10.0 mi Calm Calm - N/A   Clear
9:35 PM 34.9 °F - 34.5 °F 99% 30.15 in 10.0 mi Calm Calm - N/A   Clear
9:55 PM 34.7 °F - 34.2 °F 98% 30.16 in 10.0 mi Calm Calm - N/A   Clear
10:15 PM 34.0 °F - 33.4 °F 98% 30.16 in 10.0 mi Calm Calm - N/A   Clear
10:35 PM 34.0 °F - 33.8 °F 99% 30.15 in 10.0 mi Calm Calm - N/A   Clear
10:55 PM 33.8 °F - 33.4 °F 99% 30.14 in 10.0 mi Calm Calm - N/A   Clear
11:15 PM 33.8 °F - 33.4 °F 99% 30.14 in 10.0 mi Calm Calm - N/A   Clear
11:35 PM 33.8 °F - 33.4 °F 99% 30.14 in 10.0 mi Calm Calm - N/A   Clear
11:55 PM 33.8 °F - 33.4 °F 99% 30.13 in 10.0 mi Calm Calm - N/A   Clear